X  Close Clear throughout the day.
Conditions Temperature Feels Precipitation Wind Wind Direction UV index Pressure
02:00 clear-night Clear 11° - 7-11 km/h NE NE - 1018,3
03:00 clear-night Clear 11° - 8-14 km/h NE NE - 1018,2
04:00 clear-night Clear 11° - 9-15 km/h ENE ENE - 1018,1
05:00 clear-night Clear 10° - 10-17 km/h ENE ENE - 1018,2
06:00 clear-night Clear 10° - 11-19 km/h ENE ENE - 1018,8
07:00 clear-night Clear 9° - 11-21 km/h ENE ENE - 1020,5
08:00 clear-day Clear 9° - 13-23 km/h ENE ENE - 1021,0
09:00 clear-day Clear 13° - 16-26 km/h ENE ENE uv-1 1020,7
10:00 clear-day Clear 19° - 19-29 km/h ENE ENE uv-3 1019,1
11:00 clear-day Clear 23° - 21-31 km/h NE NE uv-6 1018,3
12:00 clear-day Clear 26° - 22-30 km/h NE NE uv-8 1017,0
13:00 clear-day Clear 28° - 21-27 km/h NNE NNE uv-8 1015,5
14:00 clear-day Clear 29° - 20-24 km/h North North uv-8 1014,2
15:00 clear-day Clear 30° - 20-23 km/h North North uv-6 1013,3
16:00 clear-day Clear 30° - 19-21 km/h North North uv-4 1012,7
17:00 clear-day Clear 30° - 17-20 km/h North North uv-1 1012,5
18:00 clear-day Clear 27° - 15-20 km/h North North - 1013,2
19:00 clear-night Clear 24° - 12-20 km/h North North - 1014,5
20:00 clear-night Clear 21° - 10-19 km/h NNE NNE - 1015,7
21:00 clear-night Clear 18° - 8-16 km/h NE NE - 1017,5
22:00 clear-night Clear 16° - 7-11 km/h NE NE - 1018,9
23:00 clear-night Clear 14° - 5-7 km/h NNW NNW - 1019,5
00:00 clear-night Clear 12° - 5-5 km/h North North - 1019,5
01:00 clear-night Clear 11° - 4-5 km/h ENE ENE - 1018,1
02:00 clear-night Clear 11° - 5-5 km/h East Easterly - 1017,9
03:00 clear-night Clear 10° - 6-6 km/h ENE ENE - 1017,8
04:00 clear-night Clear 11° - 8-9 km/h ENE ENE - 1018,3
05:00 clear-night Clear 11° - 9-12 km/h NE NE - 1019,3
06:00 clear-night Clear 11° - 10-12 km/h NE NE - 1019,8
07:00 clear-night Clear 11° - 9-11 km/h NE NE - 1020,5
08:00 clear-day Clear 12° - 10-12 km/h NE NE - 1020,7
09:00 clear-day Clear 16° - 13-17 km/h NE NE uv-1 1019,9
10:00 clear-day Clear 21° - 17-24 km/h NE NE uv-3 1018,4
11:00 clear-day Clear 25° - 20-29 km/h NNE NNE uv-6 1017,6
12:00 clear-day Clear 27° - 21-30 km/h NNE NNE uv-8 1016,5
13:00 clear-day Clear 28° - 21-29 km/h North North uv-9 1016,0
14:00 clear-day Clear 29° - 21-27 km/h North North uv-8 1014,9
15:00 clear-day Clear 30° - 20-26 km/h North North uv-6 1014,1
16:00 clear-day Clear 30° - 19-25 km/h WNW WNW uv-4 1013,3
17:00 clear-day Clear 30° - 18-23 km/h NW NW uv-1 1012,5
18:00 clear-day Clear 27° - 15-20 km/h North North - 1013,5
19:00 clear-night Clear 22° - 12-18 km/h SW SW - 1015,3
20:00 clear-night Clear 18° - 9-15 km/h WSW WSW - 1016,9
21:00 clear-night Clear 15° - 7-12 km/h WSW WSW - 1018,6
22:00 clear-night Clear 13° - 5-9 km/h SSW SSW - 1019,7
23:00 clear-night Clear 11° 0.01 mm 1% 4-6 km/h SW SW - 1020,4
00:00 clear-night Clear 10° 0.01 mm 1% 3-5 km/h South South - 1020,5
01:00 clear-night Clear 10° - 3-5 km/h ENE ENE - 1020,4
02:00 clear-night Clear 9° - 3-5 km/h NNE NNE - 1019,6